EW2875 Weather Reports


Display with metric or nautical units.
time (UTC)temp
F
wind
direction
speed
MPH
gust
MPH
rain 1hr
in
rain 24hr
in
rain mn
in
humidity
%
barometer
mb
20260504173003 50 331 6.0 10.0 0.00 0.00 0.00 85 1011.7
20260504171503 50 327 13.0 20.0 0.00 0.00 0.00 83 1011.6
20260504081524 49 270 6.0 18.0 0.00 0.00 0.00 74 1011.6
20260504050003 40 236 8.0 13.0 0.00 0.00 0.00 88 1011.5
20260504044503 40 234 8.0 13.0 0.00 0.00 0.00 89 1011.5
20260504043003 40 236 7.0 13.0 0.00 0.00 0.00 90 1011.6
20260504041503 40 242 7.0 11.0 0.00 0.00 0.00 92 1011.7
20260504040024 39 250 7.0 10.0 0.00 0.00 0.00 92 1011.8
20260504034503 39 253 4.0 8.0 0.00 0.00 0.00 93 1011.8
20260504033003 39 248 5.0 9.0 0.00 0.00 0.00 93 1011.9
20260504031503 38 238 7.0 10.0 0.00 0.00 0.00 94 1011.9
20260504030024 38 239 5.0 9.0 0.00 0.00 0.00 95 1011.8
20260504024503 37 247 1.0 3.0 0.00 0.00 0.00 94 1011.9
20260504023003 38 245 3.0 7.0 0.00 0.00 0.00 94 1011.9
20260504021503 38 244 2.0 7.0 0.00 0.00 0.00 94 1012.1
20260504020005 39 238 7.0 10.0 0.00 0.00 0.00 95 1012.0
20260504014505 39 232 5.0 9.0 0.00 0.00 0.00 95 1012.1
20260504013005 39 222 5.0 9.0 0.00 0.00 0.00 95 1012.2
20260504011505 39 218 7.0 9.0 0.00 0.00 0.00 95 1012.2
20260504010005 38 233 4.0 8.0 0.00 0.00 0.00 95 1012.2
20260504004505 39 285 0.0 2.0 0.00 0.00 0.00 93 1012.3
20260504003026 40 285 1.0 4.0 0.00 0.00 0.00 93 1012.3
20260504001505 41 285 0.0 2.0 0.00 0.00 0.00 94 1012.3
20260504000004 41 285 1.0 3.0 0.00 0.00 0.00 94 1012.3
20260503234505 41 285 2.0 3.0 0.00 0.00 0.00 94 1012.2
20260503233005 41 285 0.0 2.0 0.00 0.00 0.00 95 1012.3
20260503231504 41 285 1.0 2.0 0.00 0.00 0.00 93 1012.2
20260503230006 42 285 3.0 4.0 0.00 0.00 0.00 93 1012.3
20260503224504 43 285 1.0 4.0 0.00 0.00 0.00 93 1012.4
20260503223004 44 285 1.0 3.0 0.00 0.00 0.00 94 1012.5
20260503221504 43 285 0.0 2.0 0.00 0.00 0.00 94 1012.5
20260503220004 43 0 0.0 0.0 0.00 0.00 0.00 94 1012.5
20260503214505 43 285 0.0 2.0 0.00 0.00 0.00 94 1012.4
20260503213004 43 285 0.0 2.0 0.00 0.00 0.00 94 1012.3
20260503211504 43 289 2.0 4.0 0.00 0.00 0.00 94 1012.4
20260503210005 43 286 4.0 7.0 0.00 0.00 0.00 93 1012.4
20260503204504 44 282 3.0 4.0 0.00 0.00 0.00 93 1012.4
20260503203004 44 273 2.0 4.0 0.00 0.00 0.00 94 1012.3
20260503201525 44 251 3.0 4.0 0.00 0.00 0.00 95 1012.2
20260503200025 43 0 0.0 0.0 0.00 0.00 0.00 95 1012.0
20260503194525 42 0 0.0 0.0 0.00 0.00 0.00 93 1011.9
20260503193004 42 0 0.0 0.0 0.00 0.00 0.00 93 1011.8
20260503191504 42 0 0.0 0.0 0.00 0.00 0.00 92 1011.7
20260503190004 43 0 0.0 0.0 0.00 0.00 0.00 89 1011.6
20260503184504 45 154 0.0 1.0 0.00 0.00 0.00 88 1011.6
20260503183025 46 154 2.0 3.0 0.00 0.00 0.00 88 1011.6
20260503181505 47 154 1.0 2.0 0.00 0.00 0.00 88 1011.6
20260503180005 47 154 1.0 3.0 0.00 0.00 0.00 88 1011.6
20260503174525 46 145 2.0 3.0 0.00 0.00 0.00 88 1011.6